Lucknow / Amausi, India

4:56 AM IST on February 20, 2017 (GMT +0530)
Lucknow

Weather History for VILK - January, 2013

Change the Weather History Date:

Thursday, January 17, 2013

  Actual Average Record
Temperature  
Mean Temperature 64 °F -  
Max Temperature 75 °F 71 °F 78 °F (2006)
Min Temperature 54 °F 51 °F 39 °F (2016)
Growing Degree Days 14 (Base 50)    
Moisture  
Dew Point 57 °F    
Average Humidity 76    
Maximum Humidity 88    
Minimum Humidity 49    
Precipitation  
Precipitation 0.20 in - - ()
Sea Level Pressure  
Sea Level Pressure 29.99 in    
Wind  
Wind Speed 5 mph ()    
Max Wind Speed 30 mph    
Max Gust Speed -    
Visibility 1.0 miles    
Events Thunderstorm    
Averages and records for this station are not official NWS values.
T = Trace of Precipitation, MM = Missing Value Source: Averaged Metar Reports

Daily Weather History Graph

Daily Weather History Graph

Search for Another Location

Airport or City:

Trip Planner

Search our weather history database for the weather conditions in past years. The results will help you decide how hot, cold, wet, or windy it might be!

Date:

Astronomy

Jan. 17, 2013 Rise Set
Actual Time 6:56 AM IST 5:36 PM IST
Civil Twilight 6:31 AM IST 6:01 PM IST
Nautical Twilight 6:03 AM IST 6:30 PM IST
Astronomical Twilight 5:35 AM IST 6:58 PM IST
Moon 10:26 AM IST (1/17) 11:19 PM IST (1/17)
Length of Visible Light 11h 30m
Length of Day
10h 40m
Waxing Crescent, 33% of the Moon is Illuminated
Jan 17
Waxing Crescent
Jan 19
First Quarter
Jan 27
Full
Feb 3
Last Quarter
Feb 10
New

Hourly Weather History & Observations

Time (IST) Temp. Dew Point Humidity Pressure Visibility Wind Dir Wind Speed Gust Speed Precip Events Conditions
12:00 AM 60.8 °F 53.6 °F 77% 30.01 in 0.9 mi Variable 2.3 mph - N/A   Scattered Clouds
1:00 AM 60.8 °F 55.4 °F 82% 29.98 in 0.7 mi Variable 2.3 mph - N/A   Scattered Clouds
2:00 AM 59.0 °F 55.4 °F 88% 29.98 in 0.7 mi Variable 2.3 mph - N/A   Mist
2:30 AM 59 °F 56 °F 85% 30.01 in 1 mi 2.3 mph - -   Mist
3:00 AM 59.0 °F 55.4 °F 88% 29.98 in 0.7 mi Variable 2.3 mph - N/A   Mist
4:00 AM 59.0 °F 55.4 °F 88% 29.98 in 0.7 mi Calm Calm - N/A   Scattered Clouds
5:00 AM 59.0 °F 55.4 °F 88% 29.98 in 0.6 mi Calm Calm - N/A   Scattered Clouds
5:30 AM 57.2 °F 50.0 °F 77% 29.98 in 0.6 mi Variable 2.3 mph - N/A   Scattered Clouds
6:00 AM 57.2 °F 50.0 °F 77% 29.98 in 0.6 mi East 3.5 mph - N/A   Scattered Clouds
6:30 AM 59.0 °F 53.6 °F 82% 29.98 in 0.6 mi East 3.5 mph - N/A   Scattered Clouds
7:00 AM 57.2 °F 53.6 °F 88% 30.01 in 0.6 mi East 3.5 mph - N/A   Partly Cloudy
7:30 AM 59.0 °F 53.6 °F 82% 30.01 in 0.6 mi East 3.5 mph - N/A   Scattered Clouds
8:00 AM 59.0 °F 53.6 °F 82% 30.01 in 0.6 mi East 4.6 mph - N/A   Scattered Clouds
8:30 AM 61 °F 57 °F 81% 30.06 in 1 mi East 4.6 mph - -   Mist
8:30 AM 60.8 °F 57.2 °F 88% 30.04 in 0.7 mi East 4.6 mph - N/A   Mostly Cloudy
9:00 AM 64.4 °F 59.0 °F 83% 30.04 in 0.7 mi ESE 4.6 mph - N/A   Mostly Cloudy
10:00 AM 69.8 °F 57.2 °F 64% 30.04 in 1.2 mi ESE 6.9 mph - N/A   Haze
10:30 AM 71.6 °F 59.0 °F 64% 30.04 in 1.2 mi SE 6.9 mph - N/A   Haze
11:00 AM 71.6 °F 59.0 °F 64% 30.04 in 1.6 mi East 9.2 mph - N/A   Haze
11:30 AM 73 °F 58 °F 49% 30.03 in 1 mi East 11.5 mph - -   Haze
11:30 AM 73.4 °F 57.2 °F 57% 30.01 in 1.6 mi East 11.5 mph - N/A   Haze
12:00 PM 73.4 °F 57.2 °F 57% 30.01 in 1.6 mi East 9.2 mph - N/A   Haze
1:30 PM 73.4 °F 59.0 °F 61% 29.98 in 1.9 mi East 9.2 mph - N/A   Haze
2:00 PM 75.2 °F 59.0 °F 57% 29.95 in 1.9 mi East 9.2 mph - N/A   Haze
2:30 PM - 58 °F % 29.97 in 0 mi NNE 29.9 mph - -  
2:30 PM 73.4 °F 59.0 °F 61% 29.95 in 1.6 mi East 8.1 mph - N/A Thunderstorm Thunderstorm
4:00 PM 66.2 °F 62.6 °F 88% 29.98 in 1.0 mi NE 8.1 mph - N/A   Mostly Cloudy
4:30 PM 66.2 °F 60.8 °F 83% 29.95 in 1.2 mi ENE 9.2 mph - N/A   Mostly Cloudy
5:00 PM 66.2 °F 59.0 °F 78% 29.95 in 1.2 mi ENE 8.1 mph - N/A   Scattered Clouds
5:30 PM 66.2 °F 60.8 °F 83% 29.95 in 1.2 mi East 8.1 mph - N/A   Scattered Clouds
6:00 PM 64.4 °F 59.0 °F 83% 29.95 in 1.2 mi East 9.2 mph - N/A   Scattered Clouds
6:30 PM 64.4 °F 59.0 °F 83% 29.95 in 1.2 mi East 9.2 mph - N/A   Scattered Clouds
7:00 PM 64.4 °F 57.2 °F 77% 29.98 in 1.2 mi East 8.1 mph - N/A   Scattered Clouds
7:30 PM 64.4 °F 57.2 °F 77% 29.98 in 1.2 mi East 8.1 mph - N/A   Scattered Clouds
8:00 PM 64.4 °F 57.2 °F 77% 29.98 in 1.2 mi East 9.2 mph - N/A   Scattered Clouds
8:30 PM 64 °F 57 °F 70% 30.01 in 1 mi East 10.4 mph - -   Mist
8:30 PM 64.4 °F 57.2 °F 77% 29.98 in 1.2 mi East 10.4 mph - N/A   Scattered Clouds
9:00 PM 62.6 °F 55.4 °F 77% 29.98 in 1.2 mi East 9.2 mph - N/A   Scattered Clouds
10:00 PM 62.6 °F 55.4 °F 77% 29.98 in 1.2 mi East 5.8 mph - N/A   Scattered Clouds
11:00 PM 60.8 °F 55.4 °F 82% 29.95 in 1.2 mi ESE 6.9 mph - N/A   Partly Cloudy
11:30 PM 61 °F 55 °F 75% 29.98 in 1 mi East 6.9 mph - -   Mist